Location: Madrid
(40.4000°N, 3.6830°W)
Time: 15:20:59
(UTC+02:00)

ISS - Pass Details

Date: 18 September 2019
Orbit: 411 x 421 km, 51.6° (Epoch: 18 September)

Event Time Altitude Azimuth Distance (km) Brightness Sun altitude
Rises 21:19:29 0° 204° (SSW) 2,328 0.2 -12.2°
Reaches altitude 10° 21:21:48 10° 189° (S) 1,470 -1.0 -12.6°
Maximum altitude 21:24:32 24° 134° (SE) 896 -2.6 -13.1°
Enters shadow 21:24:54 23° 122° (ESE) 911 -2.6 -13.2°
